{"data":{"norad_id":67694,"epoch":"2026-05-25T04:55:09.437376Z","epoch_age_seconds":54464,"freshness":"FRESH","line1":"1 67694U 26025B   26145.20497034  .00033960  00000+0  10490-2 0  9990","line2":"2 67694  97.2829 256.7392 0001555  84.4025 275.7395 15.33462134 17743","mean_motion":15.33462134,"eccentricity":0.0001555,"inclination_deg":97.2829,"raan_deg":256.7392,"arg_perigee_deg":84.4025,"mean_anomaly_deg":275.7395,"bstar":0.001049,"rev_number":1774,"period_min":93.905155404379,"perigee_km":464.42801188359,"apogee_km":466.55638056361,"semimajor_km":6843.6291962236,"source":"CELESTRAK","updated_at":"2026-05-25T13:38:21.662707Z"}}